Home   Weather   Washington DC   Past weeks

Flag for USA Past Weather in Washington DC, USA — Yesterday and Last 2 Weeks

Now
45 °F

Passing clouds.


Feels Like: 41 °F
Forecast: 36 / 50 °F
Wind: 8 mph from West

Location: Reagan National Airport

Current Time: Dec 3, 2016 at 2:01:41 am

Latest Report: Dec 2, 2016 at 11:52 pm


Visibility: 10 mi

Pressure: 30.14 "Hg

Humidity: 48%

Dew Point: 26 °F

Location of Washington DCLocation

Past Weather in Washington DC — Graph

°F

Washington DC Temperature Yesterday

Maximum temperature yesterday: 54 °F (at 12:52 pm)
Minimum temperature yesterday: 44 °F (at 4:52 am)
Average temperature yesterday: 48 °F

High & Low Weather Summary for the Past Weeks

 TemperatureHumidityPressure
High72 °F (Nov 19, 1:52 pm)100% (Nov 29, 5:52 pm)30.39 "Hg (Nov 29, 5:52 pm)
Low35 °F (Nov 22, 2:52 am)25% (Nov 21, 2:52 pm)29.56 "Hg (Nov 30, 11:52 pm)
Average48 °F61%30.06 "Hg
* Reported Nov 17 11:52 pm — Dec 2 11:52 pm, Washington DC, Weather by CustomWeather, © 2016

Note: Actual official high and low records may vary slightly from our data, if they occured in-between our weather recording intervals... More about our weather records

Advertising

Washington DC Weather History for the Previous 24 Hours

Scroll right to see more
 ConditionsComfort  
Time TempWeatherWind HumidityBarometerVisibility
11:52 pm
Fri, Dec 2
45 °FPassing clouds.8 mph48%30.14 "Hg10 mi
10:52 pm45 °FPassing clouds.13 mph48%30.13 "Hg10 mi
9:52 pm45 °FPassing clouds.17 mph49%30.13 "Hg10 mi
8:52 pm45 °FOvercast.13 mph51%30.13 "Hg10 mi
7:52 pm46 °FPassing clouds.16 mph50%30.12 "Hg10 mi
6:52 pm46 °FPassing clouds.15 mph50%30.11 "Hg10 mi
5:52 pm46 °FPassing clouds.15 mph51%30.08 "Hg10 mi
4:52 pm48 °FPassing clouds.20 mph48%30.06 "Hg10 mi
3:52 pm50 °FScattered clouds.9 mph46%30.05 "Hg10 mi
2:52 pm52 °FPassing clouds.16 mph43%30.03 "Hg10 mi
1:52 pm54 °FScattered clouds.17 mph40%30.03 "Hg10 mi
12:52 pm54 °FScattered clouds.15 mph40%30.03 "Hg10 mi
11:52 am51 °FPassing clouds.15 mph41%30.05 "Hg10 mi
10:52 am51 °FScattered clouds.16 mph41%30.08 "Hg10 mi
9:52 am49 °FPartly sunny.15 mph44%30.09 "Hg10 mi
8:52 am49 °FPartly sunny.10 mph44%30.07 "Hg10 mi
7:52 am46 °FPartly sunny.7 mph48%30.07 "Hg10 mi
6:52 am45 °FPassing clouds.10 mph49%30.05 "Hg10 mi
5:52 am45 °FPassing clouds.6 mph49%30.03 "Hg10 mi
4:52 am44 °FPassing clouds.8 mph51%30.02 "Hg10 mi
3:52 am45 °FPassing clouds.9 mph49%30.01 "Hg10 mi
2:52 am47 °FOvercast.12 mph48%30.01 "Hg10 mi
Weather by CustomWeather, © 2016

See weather overviewHow to use our weather pages